This is the latest recevied weather packets stored in our database for station/object SP2WPY-13. If no packets are shown the sender has not sent any weather packets the latest 10 day(s).
| Time | Temp. | Humidity | Pressure | Rain* | Wind** | Luminosity | Snow |
|---|---|---|---|---|---|---|---|
| 1777558276 | 15° C | 32% | 1029.6 hPa | - | - | - | - |
| 1777558001 | 15° C | 33% | 1029.6 hPa | - | - | - | - |
| 1777557682 | 15° C | 34% | 1029.7 hPa | - | - | - | - |
| 1777557362 | 15° C | 34% | 1029.8 hPa | - | - | - | - |
| 1777557088 | 15° C | 34% | 1029.8 hPa | - | - | - | - |
| 1777556770 | 15° C | 36% | 1029.8 hPa | - | - | - | - |
| 1777556494 | 15° C | 36% | 1029.8 hPa | - | - | - | - |
| 1777556174 | 15° C | 36% | 1029.8 hPa | - | - | - | - |
| 1777555900 | 15° C | 42% | 1029.8 hPa | - | - | - | - |
| 1777555580 | 15° C | 40% | 1029.9 hPa | - | - | - | - |
| 1777555261 | 15.56° C | 42% | 1029.9 hPa | - | - | - | - |
| 1777554987 | 15° C | 43% | 1029.9 hPa | - | - | - | - |
| 1777554667 | 15° C | 41% | 1029.9 hPa | - | - | - | - |
| 1777554393 | 15.56° C | 41% | 1029.9 hPa | - | - | - | - |
| 1777554074 | 16.11° C | 42% | 1029.8 hPa | - | - | - | - |
| 1777553799 | 15.56° C | 43% | 1029.8 hPa | - | - | - | - |
| 1777553479 | 15.56° C | 43% | 1029.7 hPa | - | - | - | - |
| 1777553206 | 15.56° C | 44% | 1029.7 hPa | - | - | - | - |
| 1777552886 | 15.56° C | 44% | 1029.8 hPa | - | - | - | - |
| 1777552566 | 15.56° C | 44% | 1030 hPa | - | - | - | - |
| 1777552292 | 15.56° C | 44% | 1030 hPa | - | - | - | - |
| 1777551973 | 15.56° C | 43% | 1030.1 hPa | - | - | - | - |
| 1777551699 | 15.56° C | 43% | 1030.1 hPa | - | - | - | - |
| 1777551378 | 15.56° C | 42% | 1030.2 hPa | - | - | - | - |
| 1777551106 | 15.56° C | 41% | 1030.1 hPa | - | - | - | - |
* Rain since midnight (hover to see other rain measurements)
** Current wind speed in m/s (hover to see current wind gust speed)